Precipitable_Water
0.53 0.54 0.53 0.52 0.51 0.49 0.49 0.48 0.47 0.47 0.47 0.46 0.47 0.47 0.47 0.47 0.46 0.46 0.46 0.45 0.45 0.45 0.45 0.43 0.44 0.43 0.41 0.42 0.42 0.43 0.42 0.34 0.31 0.36 0.31 0.34 0.40 0.41 0.38 0.33 0.34 0.37 0.33 0.32 0.44 0.39 0.33 0.34 0.31 0.33 0.23 0.21 0.21 0.22 0.31 0.22 0.26 0.19 0.15 0.15 0.14 0.14 0.12 0.13 0.14 0.13 0.18 0.17 0.21 0.22 0.21 0.20 0.17 0.22 0.24 0.24 0.32 0.46 0.70 0.62 0.93 1.11 1.10 1.13 1.24 1.22 1.33 1.35
0.54 0.53 0.53 0.52 0.50 0.49 0.48 0.47 0.47 0.45 0.45 0.45 0.46 0.46 0.47 0.46 0.46 0.46 0.46 0.44 0.44 0.44 0.44 0.44 0.42 0.42 0.42 0.41 0.43 0.43 0.38 0.33 0.29 0.33 0.34 0.47 0.37 0.37 0.41 0.40 0.35 0.35 0.34 0.34 0.39 0.31 0.30 0.31 0.31 0.26 0.23 0.17 0.22 0.22 0.27 0.20 0.23 0.17 0.15 0.14 0.15 0.15 0.18 0.18 0.18 0.17 0.16 0.17 0.21 0.21 0.21 0.20 0.19 0.20 0.24 0.22 0.34 0.44 0.55 0.62 0.93 0.91 0.98 1.16 1.19 1.27 1.21 1.23
0.53 0.53 0.53 0.51 0.51 0.49 0.48 0.46 0.46 0.45 0.44 0.44 0.44 0.44 0.44 0.45 0.45 0.45 0.44 0.44 0.43 0.44 0.43 0.42 0.42 0.41 0.39 0.41 0.41 0.41 0.38 0.29 0.34 0.26 0.37 0.37 0.33 0.38 0.42 0.42 0.34 0.36 0.31 0.35 0.40 0.34 0.34 0.33 0.32 0.24 0.24 0.18 0.18 0.20 0.21 0.22 0.19 0.18 0.17 0.16 0.13 0.19 0.20 0.20 0.19 0.17 0.17 0.19 0.18 0.19 0.20 0.20 0.20 0.21 0.24 0.23 0.24 0.28 0.30 0.60 0.74 0.89 0.89 0.95 1.06 1.16 1.23 1.22
0.53 0.53 0.52 0.52 0.49 0.49 0.47 0.46 0.45 0.44 0.44 0.43 0.43 0.43 0.43 0.43 0.43 0.43 0.43 0.43 0.43 0.42 0.41 0.41 0.40 0.39 0.39 0.37 0.41 0.40 0.34 0.29 0.23 0.39 0.43 0.35 0.32 0.39 0.44 0.41 0.33 0.35 0.37 0.51 0.42 0.39 0.39 0.37 0.32 0.24 0.23 0.19 0.19 0.20 0.20 0.23 0.17 0.18 0.16 0.16 0.20 0.24 0.19 0.18 0.18 0.18 0.19 0.18 0.18 0.18 0.19 0.18 0.21 0.23 0.22 0.22 0.22 0.26 0.33 0.64 0.81 0.95 1.00 1.00 1.03 1.16 1.18 1.18
0.53 0.52 0.52 0.51 0.50 0.48 0.47 0.46 0.45 0.44 0.43 0.43 0.43 0.42 0.42 0.42 0.42 0.42 0.42 0.41 0.41 0.40 0.40 0.39 0.38 0.37 0.36 0.37 0.35 0.37 0.31 0.16 0.36 0.47 0.47 0.38 0.40 0.42 0.45 0.39 0.32 0.35 0.46 0.54 0.42 0.41 0.38 0.34 0.30 0.23 0.23 0.18 0.18 0.17 0.19 0.21 0.22 0.20 0.16 0.16 0.20 0.21 0.19 0.19 0.19 0.22 0.18 0.18 0.15 0.16 0.17 0.19 0.23 0.21 0.21 0.22 0.20 0.26 0.40 0.74 0.86 0.98 1.12 1.04 0.89 1.08 1.18 1.13
0.52 0.52 0.52 0.51 0.50 0.49 0.47 0.45 0.45 0.43 0.43 0.43 0.43 0.43 0.42 0.42 0.42 0.42 0.41 0.41 0.39 0.39 0.38 0.38 0.37 0.35 0.35 0.35 0.33 0.30 0.23 0.14 0.41 0.53 0.48 0.45 0.45 0.49 0.47 0.39 0.33 0.41 0.45 0.45 0.39 0.37 0.34 0.32 0.29 0.22 0.21 0.19 0.19 0.17 0.19 0.18 0.25 0.15 0.19 0.19 0.21 0.20 0.19 0.21 0.23 0.21 0.19 0.17 0.17 0.18 0.20 0.22 0.20 0.19 0.21 0.22 0.22 0.25 0.33 0.57 0.72 0.96 1.16 1.19 1.03 1.13 1.08 1.12
0.52 0.51 0.51 0.51 0.50 0.49 0.48 0.46 0.45 0.44 0.44 0.44 0.43 0.43 0.42 0.43 0.43 0.43 0.42 0.40 0.39 0.38 0.38 0.37 0.36 0.35 0.33 0.32 0.30 0.26 0.21 0.24 0.20 0.55 0.50 0.53 0.51 0.49 0.47 0.38 0.35 0.42 0.42 0.36 0.35 0.34 0.29 0.30 0.26 0.22 0.20 0.18 0.20 0.18 0.18 0.17 0.21 0.18 0.16 0.20 0.19 0.19 0.18 0.19 0.19 0.19 0.18 0.18 0.17 0.20 0.23 0.19 0.18 0.16 0.22 0.22 0.24 0.26 0.28 0.37 0.48 0.74 1.14 1.15 0.96 0.97 1.10 1.08
0.51 0.51 0.51 0.50 0.50 0.48 0.47 0.47 0.46 0.45 0.45 0.44 0.43 0.42 0.42 0.42 0.43 0.43 0.43 0.41 0.39 0.38 0.38 0.37 0.36 0.34 0.35 0.26 0.21 0.27 0.21 0.26 0.37 0.41 0.37 0.42 0.49 0.45 0.42 0.39 0.38 0.41 0.39 0.33 0.32 0.30 0.29 0.28 0.23 0.24 0.20 0.17 0.20 0.19 0.19 0.18 0.19 0.17 0.15 0.17 0.22 0.23 0.21 0.20 0.19 0.19 0.18 0.19 0.20 0.19 0.17 0.18 0.18 0.18 0.20 0.21 0.23 0.26 0.34 0.43 0.48 0.57 0.93 1.02 0.99 0.99 1.05 1.07
0.50 0.49 0.50 0.50 0.49 0.47 0.47 0.46 0.45 0.45 0.45 0.44 0.43 0.42 0.41 0.41 0.42 0.43 0.42 0.42 0.40 0.39 0.38 0.38 0.35 0.34 0.34 0.28 0.17 0.18 0.20 0.33 0.44 0.34 0.40 0.33 0.37 0.39 0.38 0.37 0.42 0.39 0.37 0.37 0.34 0.31 0.28 0.26 0.23 0.22 0.18 0.16 0.21 0.20 0.20 0.18 0.15 0.17 0.17 0.18 0.17 0.19 0.21 0.20 0.19 0.19 0.19 0.20 0.19 0.17 0.15 0.17 0.18 0.20 0.18 0.20 0.24 0.30 0.43 0.48 0.54 0.60 0.91 0.96 0.92 1.04 1.01 1.11
0.50 0.49 0.48 0.48 0.47 0.47 0.46 0.46 0.45 0.45 0.45 0.45 0.44 0.42 0.41 0.41 0.41 0.42 0.41 0.40 0.39 0.38 0.37 0.37 0.37 0.33 0.26 0.24 0.27 0.19 0.22 0.37 0.36 0.46 0.43 0.42 0.36 0.37 0.41 0.39 0.39 0.35 0.33 0.32 0.29 0.29 0.24 0.25 0.22 0.22 0.20 0.20 0.21 0.19 0.20 0.18 0.21 0.26 0.20 0.18 0.17 0.19 0.20 0.20 0.18 0.20 0.21 0.18 0.19 0.15 0.15 0.15 0.18 0.19 0.16 0.20 0.30 0.38 0.44 0.51 0.56 0.66 0.86 0.92 0.99 1.08 1.12 1.19
0.49 0.48 0.48 0.48 0.47 0.46 0.45 0.45 0.45 0.45 0.45 0.45 0.45 0.44 0.43 0.42 0.41 0.41 0.40 0.39 0.38 0.38 0.38 0.36 0.37 0.31 0.27 0.30 0.18 0.13 0.25 0.32 0.47 0.43 0.53 0.46 0.37 0.37 0.41 0.37 0.37 0.34 0.32 0.30 0.27 0.27 0.25 0.26 0.22 0.23 0.20 0.17 0.19 0.18 0.18 0.20 0.19 0.20 0.25 0.23 0.20 0.19 0.20 0.20 0.20 0.19 0.18 0.16 0.16 0.15 0.14 0.15 0.16 0.18 0.16 0.23 0.37 0.40 0.38 0.51 0.64 0.68 0.82 0.94 1.01 1.06 1.13 1.13
0.49 0.48 0.47 0.46 0.46 0.46 0.45 0.45 0.45 0.46 0.46 0.46 0.46 0.45 0.43 0.42 0.41 0.40 0.39 0.38 0.37 0.37 0.36 0.35 0.33 0.33 0.26 0.21 0.16 0.17 0.22 0.34 0.39 0.49 0.43 0.44 0.41 0.42 0.43 0.38 0.38 0.35 0.32 0.28 0.28 0.27 0.26 0.25 0.23 0.22 0.19 0.21 0.17 0.18 0.19 0.22 0.20 0.20 0.20 0.15 0.16 0.15 0.14 0.15 0.15 0.16 0.16 0.15 0.17 0.18 0.15 0.14 0.14 0.14 0.17 0.20 0.34 0.37 0.38 0.50 0.61 0.64 0.85 0.99 1.03 0.99 1.08 1.02
0.49 0.48 0.47 0.46 0.46 0.46 0.45 0.45 0.46 0.46 0.46 0.45 0.45 0.43 0.42 0.41 0.40 0.39 0.39 0.37 0.38 0.37 0.36 0.35 0.33 0.35 0.27 0.17 0.24 0.24 0.21 0.35 0.43 0.43 0.45 0.38 0.43 0.45 0.40 0.40 0.40 0.39 0.36 0.32 0.29 0.28 0.29 0.26 0.25 0.21 0.21 0.22 0.20 0.18 0.24 0.21 0.20 0.20 0.18 0.16 0.15 0.14 0.13 0.14 0.16 0.16 0.15 0.16 0.17 0.16 0.09 0.10 0.12 0.13 0.14 0.20 0.24 0.32 0.33 0.39 0.52 0.60 0.84 1.10 1.00 0.99 0.97 0.98
0.49 0.48 0.47 0.46 0.45 0.45 0.45 0.45 0.46 0.46 0.45 0.44 0.44 0.42 0.41 0.40 0.39 0.39 0.41 0.41 0.43 0.41 0.40 0.35 0.36 0.32 0.30 0.20 0.22 0.22 0.29 0.36 0.40 0.37 0.41 0.45 0.43 0.42 0.43 0.43 0.44 0.41 0.40 0.38 0.34 0.30 0.27 0.25 0.25 0.24 0.26 0.21 0.23 0.27 0.21 0.21 0.19 0.16 0.17 0.17 0.13 0.13 0.14 0.17 0.17 0.18 0.14 0.15 0.15 0.14 0.08 0.09 0.12 0.13 0.15 0.20 0.28 0.32 0.31 0.32 0.43 0.53 0.75 0.99 0.97 0.99 0.96 0.94
0.49 0.49 0.47 0.46 0.45 0.45 0.45 0.45 0.45 0.45 0.45 0.43 0.42 0.42 0.40 0.39 0.39 0.43 0.45 0.43 0.45 0.46 0.42 0.42 0.35 0.34 0.22 0.29 0.25 0.28 0.25 0.31 0.26 0.31 0.42 0.40 0.39 0.36 0.37 0.41 0.43 0.43 0.39 0.38 0.34 0.31 0.29 0.24 0.23 0.22 0.22 0.24 0.29 0.25 0.19 0.19 0.20 0.16 0.13 0.13 0.14 0.11 0.16 0.19 0.20 0.18 0.13 0.19 0.19 0.14 0.09 0.09 0.13 0.16 0.16 0.24 0.28 0.28 0.31 0.31 0.36 0.46 0.65 0.86 0.88 0.92 0.92 0.94
0.50 0.49 0.48 0.46 0.45 0.45 0.44 0.44 0.45 0.45 0.44 0.43 0.41 0.41 0.40 0.40 0.43 0.48 0.46 0.45 0.45 0.46 0.44 0.36 0.34 0.28 0.25 0.18 0.33 0.43 0.26 0.16 0.18 0.27 0.35 0.36 0.36 0.33 0.36 0.38 0.42 0.42 0.40 0.37 0.34 0.30 0.28 0.24 0.19 0.21 0.22 0.22 0.21 0.20 0.17 0.17 0.18 0.18 0.13 0.15 0.15 0.14 0.13 0.18 0.20 0.18 0.16 0.19 0.17 0.13 0.10 0.11 0.10 0.15 0.20 0.28 0.29 0.28 0.31 0.31 0.36 0.47 0.63 0.95 0.95 0.90 0.80 0.87
0.49 0.49 0.48 0.46 0.44 0.44 0.44 0.44 0.44 0.44 0.43 0.41 0.40 0.40 0.41 0.44 0.49 0.48 0.47 0.43 0.41 0.45 0.44 0.42 0.43 0.34 0.22 0.36 0.41 0.31 0.27 0.23 0.29 0.21 0.29 0.30 0.31 0.36 0.38 0.37 0.36 0.39 0.39 0.38 0.33 0.29 0.25 0.21 0.20 0.21 0.23 0.22 0.21 0.19 0.16 0.15 0.17 0.18 0.16 0.12 0.18 0.17 0.15 0.14 0.20 0.19 0.17 0.14 0.13 0.16 0.10 0.12 0.15 0.15 0.20 0.26 0.28 0.28 0.29 0.30 0.36 0.48 0.59 0.92 0.98 0.80 0.66 0.82
0.49 0.48 0.47 0.45 0.44 0.43 0.43 0.44 0.45 0.43 0.42 0.39 0.38 0.38 0.41 0.47 0.51 0.50 0.47 0.48 0.52 0.45 0.48 0.45 0.36 0.32 0.21 0.26 0.17 0.25 0.38 0.38 0.38 0.28 0.29 0.30 0.30 0.32 0.33 0.35 0.39 0.37 0.37 0.32 0.31 0.24 0.24 0.19 0.20 0.18 0.20 0.19 0.20 0.18 0.15 0.15 0.17 0.19 0.19 0.15 0.14 0.17 0.19 0.18 0.17 0.20 0.19 0.17 0.12 0.16 0.14 0.13 0.14 0.17 0.20 0.23 0.24 0.23 0.27 0.30 0.33 0.42 0.57 0.89 0.93 0.85 0.85 0.89
0.48 0.47 0.46 0.45 0.43 0.42 0.43 0.43 0.43 0.43 0.40 0.37 0.38 0.46 0.49 0.51 0.51 0.50 0.44 0.45 0.34 0.29 0.20 0.31 0.25 0.14 0.18 0.29 0.24 0.38 0.38 0.43 0.47 0.39 0.35 0.32 0.29 0.32 0.37 0.42 0.40 0.36 0.28 0.25 0.28 0.24 0.22 0.20 0.21 0.17 0.15 0.15 0.16 0.17 0.17 0.19 0.20 0.21 0.20 0.22 0.20 0.17 0.17 0.16 0.17 0.21 0.19 0.16 0.15 0.14 0.13 0.14 0.14 0.14 0.15 0.17 0.19 0.21 0.22 0.28 0.32 0.36 0.45 0.70 0.87 0.78 0.77 0.74
0.48 0.47 0.45 0.44 0.42 0.42 0.42 0.43 0.43 0.41 0.40 0.34 0.37 0.45 0.53 0.52 0.46 0.41 0.45 0.41 0.25 0.24 0.30 0.31 0.31 0.30 0.27 0.26 0.27 0.39 0.47 0.40 0.33 0.36 0.41 0.39 0.30 0.30 0.34 0.38 0.36 0.34 0.30 0.21 0.28 0.23 0.22 0.15 0.15 0.13 0.13 0.15 0.15 0.16 0.19 0.21 0.22 0.23 0.23 0.23 0.20 0.19 0.20 0.19 0.22 0.22 0.21 0.15 0.14 0.14 0.15 0.14 0.15 0.17 0.17 0.17 0.19 0.22 0.21 0.23 0.29 0.31 0.33 0.43 0.89 0.87 0.79 0.72
0.48 0.47 0.45 0.42 0.42 0.41 0.42 0.42 0.42 0.41 0.39 0.36 0.38 0.34 0.37 0.33 0.22 0.27 0.33 0.33 0.33 0.28 0.23 0.23 0.25 0.24 0.24 0.29 0.30 0.31 0.31 0.33 0.35 0.37 0.39 0.41 0.33 0.30 0.30 0.31 0.32 0.24 0.26 0.27 0.27 0.28 0.20 0.14 0.15 0.16 0.14 0.16 0.19 0.18 0.18 0.21 0.28 0.23 0.21 0.19 0.16 0.15 0.14 0.18 0.19 0.24 0.22 0.17 0.15 0.16 0.15 0.15 0.15 0.16 0.17 0.18 0.19 0.21 0.23 0.21 0.24 0.28 0.27 0.29 0.50 0.84 0.81 0.73
0.47 0.46 0.44 0.43 0.41 0.41 0.40 0.41 0.40 0.39 0.37 0.38 0.34 0.31 0.36 0.35 0.35 0.33 0.30 0.18 0.26 0.28 0.25 0.23 0.24 0.21 0.24 0.27 0.32 0.32 0.30 0.31 0.28 0.37 0.44 0.35 0.31 0.22 0.29 0.25 0.27 0.22 0.26 0.27 0.27 0.23 0.17 0.13 0.15 0.19 0.18 0.18 0.21 0.22 0.22 0.22 0.24 0.23 0.20 0.18 0.16 0.17 0.18 0.22 0.22 0.25 0.24 0.19 0.15 0.16 0.15 0.16 0.17 0.18 0.18 0.17 0.17 0.19 0.23 0.23 0.22 0.22 0.25 0.27 0.31 0.67 0.80 0.75
0.46 0.45 0.44 0.43 0.41 0.40 0.40 0.40 0.39 0.37 0.34 0.34 0.34 0.36 0.34 0.40 0.40 0.43 0.32 0.25 0.16 0.21 0.22 0.23 0.21 0.20 0.21 0.24 0.26 0.27 0.20 0.22 0.24 0.30 0.39 0.32 0.31 0.22 0.29 0.22 0.25 0.24 0.28 0.25 0.23 0.21 0.17 0.16 0.15 0.18 0.21 0.21 0.22 0.25 0.26 0.24 0.20 0.20 0.19 0.17 0.16 0.18 0.17 0.16 0.20 0.26 0.24 0.19 0.17 0.19 0.17 0.16 0.18 0.19 0.18 0.19 0.18 0.18 0.20 0.23 0.23 0.21 0.22 0.25 0.28 0.44 0.74 0.74
0.46 0.44 0.44 0.43 0.42 0.40 0.40 0.38 0.37 0.35 0.32 0.36 0.35 0.30 0.42 0.41 0.39 0.41 0.33 0.23 0.25 0.31 0.25 0.26 0.24 0.23 0.22 0.23 0.26 0.22 0.15 0.16 0.20 0.26 0.41 0.30 0.30 0.26 0.27 0.23 0.23 0.23 0.25 0.26 0.24 0.22 0.18 0.22 0.25 0.19 0.22 0.24 0.22 0.22 0.21 0.19 0.18 0.18 0.18 0.20 0.19 0.17 0.17 0.17 0.22 0.27 0.28 0.25 0.22 0.18 0.16 0.14 0.14 0.14 0.14 0.16 0.17 0.17 0.18 0.21 0.23 0.23 0.21 0.23 0.27 0.32 0.52 0.73
0.45 0.44 0.43 0.43 0.41 0.41 0.37 0.38 0.33 0.43 0.41 0.31 0.25 0.32 0.39 0.41 0.42 0.42 0.31 0.28 0.24 0.23 0.33 0.28 0.29 0.28 0.33 0.36 0.34 0.20 0.19 0.17 0.15 0.20 0.39 0.30 0.33 0.28 0.25 0.28 0.23 0.21 0.23 0.29 0.27 0.20 0.20 0.26 0.30 0.24 0.24 0.22 0.20 0.20 0.19 0.19 0.16 0.18 0.20 0.19 0.20 0.22 0.21 0.18 0.23 0.22 0.19 0.18 0.19 0.16 0.11 0.11 0.15 0.14 0.14 0.16 0.17 0.17 0.17 0.17 0.19 0.20 0.21 0.22 0.26 0.31 0.46 0.71
0.45 0.44 0.43 0.43 0.42 0.38 0.40 0.42 0.46 0.38 0.31 0.31 0.43 0.40 0.43 0.44 0.49 0.42 0.35 0.24 0.23 0.30 0.27 0.23 0.29 0.29 0.32 0.26 0.30 0.25 0.26 0.16 0.17 0.16 0.33 0.30 0.39 0.32 0.28 0.25 0.21 0.20 0.21 0.26 0.26 0.24 0.21 0.26 0.29 0.25 0.22 0.20 0.18 0.18 0.22 0.20 0.17 0.17 0.20 0.22 0.21 0.21 0.22 0.22 0.20 0.18 0.15 0.14 0.18 0.19 0.15 0.13 0.16 0.16 0.17 0.20 0.21 0.19 0.21 0.19 0.18 0.19 0.22 0.24 0.23 0.25 0.32 0.51
0.45 0.44 0.44 0.43 0.42 0.40 0.37 0.39 0.42 0.33 0.32 0.36 0.40 0.44 0.43 0.45 0.56 0.46 0.27 0.19 0.17 0.34 0.28 0.35 0.27 0.32 0.35 0.37 0.30 0.31 0.16 0.18 0.22 0.19 0.26 0.30 0.30 0.36 0.26 0.22 0.21 0.20 0.25 0.27 0.25 0.23 0.24 0.25 0.30 0.27 0.22 0.19 0.18 0.16 0.21 0.24 0.18 0.15 0.21 0.25 0.25 0.23 0.20 0.18 0.18 0.18 0.17 0.19 0.20 0.20 0.22 0.16 0.15 0.16 0.18 0.22 0.25 0.22 0.22 0.25 0.23 0.21 0.22 0.24 0.26 0.28 0.29 0.35
0.45 0.45 0.44 0.43 0.42 0.40 0.33 0.35 0.30 0.28 0.34 0.49 0.45 0.40 0.46 0.48 0.49 0.46 0.27 0.18 0.15 0.35 0.29 0.30 0.31 0.38 0.35 0.35 0.35 0.26 0.27 0.25 0.18 0.19 0.24 0.29 0.30 0.33 0.25 0.27 0.21 0.18 0.25 0.28 0.20 0.27 0.27 0.26 0.27 0.23 0.20 0.20 0.17 0.18 0.22 0.23 0.19 0.19 0.20 0.25 0.23 0.21 0.18 0.18 0.19 0.18 0.18 0.17 0.14 0.16 0.20 0.16 0.12 0.14 0.17 0.18 0.22 0.24 0.23 0.24 0.28 0.35 0.38 0.42 0.44 0.47 0.37 0.33
0.45 0.45 0.45 0.44 0.41 0.43 0.43 0.34 0.32 0.34 0.42 0.40 0.39 0.39 0.46 0.53 0.39 0.34 0.29 0.15 0.31 0.27 0.39 0.28 0.40 0.31 0.29 0.32 0.29 0.31 0.29 0.28 0.23 0.24 0.23 0.25 0.24 0.31 0.20 0.27 0.30 0.27 0.26 0.28 0.23 0.30 0.31 0.30 0.30 0.23 0.22 0.19 0.21 0.24 0.25 0.25 0.19 0.20 0.24 0.26 0.24 0.21 0.20 0.19 0.17 0.16 0.16 0.16 0.13 0.15 0.18 0.16 0.17 0.19 0.18 0.18 0.19 0.23 0.22 0.40 0.50 0.54 0.51 0.44 0.37 0.42 0.47 0.48
0.46 0.46 0.45 0.44 0.39 0.47 0.44 0.43 0.30 0.35 0.40 0.36 0.38 0.43 0.45 0.38 0.36 0.19 0.18 0.12 0.29 0.21 0.27 0.29 0.29 0.27 0.29 0.27 0.28 0.28 0.26 0.25 0.30 0.24 0.22 0.18 0.19 0.27 0.31 0.29 0.28 0.29 0.26 0.29 0.24 0.26 0.33 0.35 0.35 0.29 0.23 0.23 0.24 0.23 0.24 0.25 0.23 0.26 0.26 0.23 0.20 0.18 0.17 0.18 0.17 0.17 0.16 0.14 0.15 0.18 0.18 0.16 0.14 0.19 0.21 0.19 0.28 0.39 0.42 0.57 0.61 0.59 0.60 0.54 0.57 0.63 0.65 0.58
0.47 0.47 0.45 0.45 0.34 0.45 0.39 0.31 0.41 0.40 0.36 0.35 0.41 0.41 0.38 0.33 0.27 0.21 0.14 0.21 0.24 0.27 0.27 0.26 0.25 0.27 0.24 0.23 0.25 0.27 0.25 0.25 0.27 0.26 0.22 0.21 0.19 0.21 0.27 0.24 0.29 0.27 0.27 0.27 0.24 0.23 0.27 0.30 0.28 0.28 0.29 0.28 0.27 0.25 0.25 0.24 0.25 0.23 0.20 0.18 0.16 0.15 0.17 0.18 0.19 0.19 0.14 0.13 0.17 0.20 0.18 0.18 0.14 0.18 0.23 0.35 0.38 0.48 0.45 0.50 0.61 0.59 0.63 0.72 0.76 0.68 0.63 0.62
0.45 0.45 0.45 0.41 0.41 0.43 0.33 0.39 0.42 0.40 0.38 0.41 0.36 0.32 0.31 0.19 0.20 0.17 0.15 0.29 0.17 0.24 0.22 0.23 0.23 0.23 0.23 0.26 0.25 0.27 0.24 0.24 0.27 0.24 0.21 0.16 0.17 0.16 0.18 0.18 0.20 0.19 0.20 0.23 0.23 0.24 0.23 0.25 0.26 0.25 0.27 0.27 0.26 0.23 0.27 0.27 0.25 0.22 0.20 0.17 0.14 0.14 0.17 0.15 0.18 0.15 0.15 0.14 0.18 0.20 0.21 0.19 0.19 0.22 0.32 0.40 0.45 0.42 0.46 0.50 0.50 0.52 0.51 0.68 0.72 0.69 0.64 0.71
0.44 0.43 0.43 0.41 0.40 0.34 0.36 0.47 0.44 0.44 0.39 0.37 0.31 0.31 0.23 0.23 0.12 0.14 0.18 0.17 0.19 0.26 0.23 0.24 0.22 0.20 0.22 0.23 0.24 0.26 0.28 0.23 0.27 0.24 0.21 0.17 0.17 0.18 0.17 0.19 0.25 0.21 0.18 0.24 0.23 0.24 0.24 0.28 0.28 0.25 0.27 0.25 0.26 0.18 0.21 0.22 0.21 0.19 0.16 0.16 0.14 0.12 0.14 0.15 0.18 0.19 0.18 0.20 0.20 0.23 0.25 0.19 0.22 0.30 0.35 0.38 0.44 0.47 0.47 0.50 0.58 0.61 0.74 0.75 0.74 0.70 0.73 0.76
0.42 0.42 0.36 0.40 0.41 0.41 0.41 0.46 0.45 0.42 0.36 0.33 0.28 0.23 0.26 0.18 0.15 0.20 0.21 0.18 0.22 0.25 0.22 0.21 0.21 0.20 0.21 0.21 0.26 0.27 0.23 0.27 0.26 0.24 0.22 0.20 0.18 0.19 0.18 0.18 0.24 0.24 0.21 0.26 0.25 0.24 0.19 0.21 0.27 0.26 0.23 0.27 0.23 0.21 0.21 0.23 0.22 0.18 0.19 0.16 0.16 0.16 0.15 0.16 0.18 0.17 0.18 0.19 0.24 0.27 0.23 0.20 0.19 0.28 0.47 0.42 0.43 0.46 0.52 0.58 0.64 0.76 0.81 0.85 0.79 0.78 0.77 0.73
0.40 0.40 0.40 0.42 0.44 0.46 0.48 0.48 0.49 0.46 0.38 0.32 0.24 0.22 0.14 0.13 0.16 0.18 0.14 0.17 0.19 0.19 0.19 0.21 0.18 0.18 0.19 0.21 0.25 0.29 0.29 0.27 0.27 0.24 0.23 0.21 0.18 0.21 0.20 0.18 0.21 0.26 0.25 0.19 0.24 0.27 0.24 0.23 0.30 0.34 0.31 0.32 0.25 0.24 0.24 0.23 0.22 0.22 0.20 0.20 0.17 0.18 0.22 0.18 0.23 0.24 0.23 0.23 0.21 0.26 0.23 0.25 0.33 0.42 0.54 0.58 0.57 0.64 0.65 0.65 0.69 0.66 0.72 0.84 0.83 0.82 0.82 0.79
0.41 0.44 0.51 0.46 0.47 0.51 0.51 0.48 0.48 0.43 0.35 0.30 0.24 0.18 0.14 0.13 0.13 0.17 0.23 0.25 0.18 0.16 0.18 0.18 0.17 0.16 0.17 0.19 0.23 0.25 0.31 0.30 0.31 0.24 0.22 0.21 0.22 0.21 0.25 0.25 0.21 0.23 0.24 0.20 0.23 0.21 0.23 0.23 0.29 0.34 0.34 0.31 0.30 0.28 0.24 0.25 0.18 0.25 0.22 0.17 0.18 0.23 0.24 0.23 0.22 0.26 0.28 0.23 0.19 0.24 0.24 0.27 0.40 0.38 0.51 0.60 0.63 0.62 0.63 0.63 0.61 0.67 0.68 0.79 0.80 0.83 0.87 0.89
0.41 0.49 0.47 0.49 0.49 0.56 0.49 0.48 0.45 0.38 0.32 0.32 0.23 0.16 0.17 0.18 0.23 0.21 0.23 0.21 0.21 0.15 0.14 0.12 0.14 0.14 0.17 0.17 0.21 0.21 0.29 0.29 0.31 0.26 0.24 0.24 0.21 0.22 0.22 0.25 0.28 0.26 0.24 0.24 0.23 0.27 0.23 0.22 0.28 0.30 0.28 0.30 0.32 0.31 0.27 0.24 0.25 0.26 0.22 0.23 0.25 0.25 0.25 0.24 0.20 0.23 0.21 0.18 0.18 0.20 0.19 0.22 0.22 0.27 0.54 0.50 0.57 0.65 0.60 0.59 0.60 0.66 0.74 0.75 0.75 0.78 0.77 0.82
0.40 0.54 0.62 0.57 0.56 0.49 0.48 0.47 0.42 0.34 0.28 0.27 0.22 0.20 0.23 0.18 0.21 0.17 0.20 0.15 0.18 0.15 0.13 0.13 0.18 0.17 0.18 0.19 0.20 0.23 0.27 0.26 0.29 0.29 0.26 0.28 0.23 0.28 0.26 0.26 0.28 0.27 0.27 0.26 0.23 0.29 0.29 0.22 0.28 0.29 0.28 0.29 0.28 0.27 0.25 0.27 0.26 0.22 0.25 0.31 0.23 0.20 0.18 0.23 0.22 0.17 0.18 0.18 0.19 0.20 0.22 0.23 0.28 0.33 0.39 0.40 0.45 0.57 0.61 0.60 0.63 0.64 0.67 0.72 0.74 0.74 0.79 0.82
0.45 0.53 0.51 0.56 0.56 0.49 0.43 0.47 0.37 0.28 0.24 0.19 0.19 0.15 0.16 0.15 0.24 0.19 0.22 0.18 0.15 0.16 0.12 0.13 0.16 0.19 0.20 0.20 0.23 0.25 0.26 0.24 0.32 0.30 0.26 0.29 0.27 0.36 0.34 0.32 0.30 0.30 0.27 0.25 0.22 0.28 0.35 0.23 0.25 0.31 0.28 0.29 0.28 0.23 0.18 0.21 0.25 0.24 0.26 0.26 0.29 0.27 0.27 0.24 0.21 0.21 0.20 0.17 0.17 0.18 0.19 0.18 0.31 0.42 0.42 0.49 0.52 0.59 0.62 0.63 0.63 0.69 0.69 0.72 0.72 0.76 0.78 0.82
0.42 0.45 0.54 0.64 0.60 0.58 0.47 0.39 0.36 0.29 0.23 0.16 0.17 0.16 0.18 0.14 0.16 0.19 0.18 0.16 0.19 0.11 0.13 0.21 0.16 0.21 0.17 0.20 0.21 0.24 0.25 0.24 0.29 0.33 0.31 0.35 0.32 0.43 0.41 0.42 0.43 0.34 0.32 0.30 0.27 0.31 0.31 0.33 0.22 0.30 0.31 0.30 0.24 0.23 0.19 0.21 0.21 0.20 0.20 0.21 0.24 0.25 0.30 0.30 0.31 0.25 0.23 0.21 0.18 0.18 0.17 0.30 0.42 0.50 0.54 0.49 0.55 0.60 0.66 0.65 0.65 0.69 0.74 0.73 0.75 0.77 0.77 0.81
0.51 0.53 0.57 0.69 0.62 0.65 0.51 0.34 0.32 0.25 0.20 0.22 0.24 0.20 0.18 0.19 0.25 0.25 0.24 0.20 0.20 0.22 0.26 0.21 0.23 0.15 0.21 0.21 0.20 0.21 0.27 0.25 0.26 0.30 0.34 0.40 0.42 0.37 0.50 0.47 0.48 0.46 0.40 0.35 0.31 0.34 0.29 0.31 0.24 0.30 0.29 0.26 0.26 0.29 0.25 0.24 0.26 0.24 0.21 0.19 0.20 0.21 0.22 0.21 0.20 0.28 0.26 0.24 0.24 0.22 0.21 0.34 0.45 0.54 0.56 0.56 0.60 0.63 0.66 0.70 0.73 0.76 0.74 0.78 0.77 0.79 0.78 0.80
0.48 0.42 0.52 0.68 0.66 0.61 0.48 0.31 0.32 0.33 0.22 0.21 0.20 0.20 0.22 0.25 0.23 0.30 0.27 0.25 0.17 0.27 0.25 0.17 0.21 0.23 0.25 0.20 0.24 0.24 0.23 0.24 0.24 0.25 0.32 0.35 0.53 0.48 0.51 0.51 0.48 0.51 0.41 0.34 0.33 0.42 0.39 0.37 0.32 0.24 0.31 0.30 0.33 0.37 0.32 0.33 0.35 0.31 0.27 0.24 0.24 0.22 0.23 0.23 0.19 0.22 0.24 0.24 0.26 0.24 0.21 0.32 0.58 0.57 0.58 0.61 0.67 0.67 0.70 0.73 0.72 0.74 0.76 0.76 0.78 0.79 0.80 0.82
0.49 0.53 0.78 0.67 0.67 0.60 0.53 0.40 0.40 0.33 0.31 0.36 0.37 0.28 0.28 0.23 0.26 0.32 0.25 0.27 0.22 0.23 0.26 0.18 0.20 0.19 0.19 0.23 0.26 0.28 0.28 0.23 0.25 0.27 0.36 0.39 0.42 0.55 0.58 0.54 0.52 0.48 0.43 0.43 0.46 0.42 0.41 0.34 0.31 0.31 0.32 0.34 0.35 0.42 0.41 0.37 0.34 0.31 0.31 0.32 0.30 0.25 0.26 0.25 0.28 0.31 0.29 0.28 0.23 0.26 0.20 0.30 0.51 0.58 0.61 0.61 0.67 0.70 0.71 0.69 0.67 0.72 0.74 0.75 0.75 0.77 0.79 0.80
0.49 0.58 0.59 0.66 0.68 0.62 0.51 0.31 0.27 0.29 0.32 0.36 0.35 0.35 0.31 0.33 0.27 0.27 0.22 0.28 0.26 0.27 0.20 0.23 0.23 0.19 0.26 0.24 0.23 0.21 0.27 0.20 0.25 0.28 0.33 0.39 0.47 0.56 0.57 0.53 0.51 0.47 0.45 0.50 0.44 0.50 0.32 0.35 0.30 0.27 0.25 0.28 0.33 0.39 0.36 0.38 0.33 0.27 0.28 0.30 0.29 0.31 0.34 0.34 0.33 0.35 0.28 0.26 0.24 0.29 0.23 0.30 0.51 0.57 0.59 0.64 0.61 0.61 0.63 0.64 0.68 0.67 0.70 0.73 0.74 0.75 0.77 0.79
0.60 0.60 0.60 0.56 0.60 0.57 0.44 0.44 0.33 0.25 0.29 0.33 0.31 0.26 0.27 0.23 0.28 0.34 0.32 0.27 0.27 0.32 0.30 0.23 0.26 0.30 0.21 0.26 0.21 0.21 0.25 0.24 0.26 0.29 0.38 0.44 0.46 0.50 0.50 0.51 0.54 0.57 0.58 0.61 0.58 0.60 0.39 0.39 0.35 0.23 0.21 0.20 0.20 0.21 0.26 0.30 0.30 0.32 0.32 0.38 0.37 0.33 0.32 0.31 0.26 0.28 0.28 0.30 0.28 0.25 0.25 0.38 0.54 0.59 0.60 0.63 0.62 0.59 0.62 0.62 0.66 0.69 0.69 0.70 0.72 0.74 0.76 0.78
0.50 0.38 0.48 0.49 0.50 0.48 0.47 0.46 0.40 0.34 0.30 0.32 0.25 0.30 0.29 0.27 0.28 0.26 0.27 0.29 0.29 0.30 0.26 0.32 0.29 0.26 0.24 0.24 0.19 0.16 0.18 0.24 0.23 0.31 0.29 0.33 0.41 0.44 0.48 0.50 0.48 0.48 0.52 0.53 0.55 0.51 0.40 0.43 0.40 0.35 0.30 0.30 0.36 0.37 0.48 0.46 0.40 0.32 0.37 0.38 0.45 0.44 0.41 0.38 0.33 0.29 0.25 0.33 0.30 0.39 0.37 0.39 0.48 0.53 0.55 0.61 0.59 0.56 0.56 0.59 0.61 0.65 0.68 0.71 0.72 0.72 0.74 0.75
0.54 0.40 0.41 0.37 0.43 0.43 0.40 0.36 0.32 0.31 0.29 0.29 0.22 0.25 0.22 0.25 0.32 0.26 0.23 0.26 0.27 0.25 0.26 0.23 0.24 0.22 0.22 0.22 0.23 0.22 0.23 0.23 0.22 0.24 0.30 0.32 0.42 0.46 0.48 0.50 0.45 0.44 0.47 0.49 0.51 0.49 0.43 0.37 0.43 0.43 0.40 0.38 0.43 0.41 0.43 0.44 0.40 0.37 0.41 0.46 0.48 0.46 0.43 0.34 0.31 0.30 0.40 0.28 0.24 0.40 0.45 0.38 0.46 0.54 0.56 0.56 0.56 0.55 0.58 0.62 0.63 0.66 0.68 0.69 0.69 0.72 0.74 0.74
0.41 0.46 0.45 0.52 0.36 0.31 0.32 0.30 0.30 0.29 0.35 0.27 0.27 0.29 0.28 0.25 0.25 0.26 0.25 0.29 0.33 0.27 0.26 0.25 0.22 0.24 0.25 0.23 0.23 0.21 0.24 0.22 0.23 0.22 0.28 0.30 0.36 0.42 0.41 0.45 0.43 0.43 0.45 0.46 0.50 0.46 0.43 0.36 0.43 0.39 0.38 0.43 0.42 0.44 0.44 0.45 0.45 0.46 0.47 0.50 0.48 0.46 0.42 0.38 0.38 0.44 0.41 0.31 0.26 0.36 0.42 0.41 0.47 0.52 0.55 0.57 0.57 0.56 0.58 0.62 0.65 0.68 0.69 0.69 0.69 0.69 0.68 0.69
0.57 0.50 0.49 0.48 0.37 0.37 0.34 0.33 0.31 0.31 0.24 0.26 0.29 0.26 0.23 0.27 0.26 0.28 0.30 0.30 0.27 0.28 0.25 0.25 0.24 0.23 0.23 0.25 0.22 0.20 0.23 0.21 0.20 0.28 0.29 0.32 0.32 0.31 0.34 0.40 0.42 0.44 0.44 0.43 0.45 0.47 0.38 0.34 0.42 0.39 0.35 0.44 0.45 0.43 0.44 0.42 0.42 0.45 0.45 0.44 0.45 0.44 0.41 0.41 0.41 0.42 0.43 0.42 0.45 0.45 0.45 0.43 0.48 0.51 0.56 0.59 0.62 0.60 0.60 0.64 0.66 0.66 0.67 0.69 0.68 0.67 0.66 0.68
0.46 0.42 0.40 0.40 0.41 0.35 0.33 0.33 0.25 0.26 0.25 0.24 0.20 0.24 0.27 0.25 0.25 0.25 0.26 0.30 0.26 0.28 0.28 0.25 0.28 0.26 0.25 0.25 0.24 0.22 0.30 0.30 0.34 0.27 0.33 0.27 0.30 0.30 0.35 0.42 0.38 0.41 0.42 0.41 0.41 0.46 0.35 0.35 0.43 0.42 0.33 0.39 0.45 0.45 0.44 0.41 0.44 0.43 0.43 0.44 0.43 0.44 0.44 0.43 0.42 0.43 0.44 0.46 0.47 0.47 0.44 0.43 0.55 0.59 0.59 0.62 0.63 0.62 0.61 0.60 0.61 0.64 0.66 0.67 0.66 0.65 0.67 0.68
0.60 0.56 0.50 0.34 0.30 0.32 0.23 0.21 0.25 0.26 0.20 0.19 0.22 0.23 0.25 0.23 0.26 0.27 0.29 0.29 0.33 0.28 0.28 0.26 0.27 0.27 0.26 0.26 0.26 0.27 0.31 0.35 0.35 0.35 0.32 0.28 0.26 0.33 0.28 0.39 0.34 0.32 0.39 0.35 0.34 0.37 0.35 0.34 0.44 0.41 0.30 0.31 0.44 0.42 0.41 0.43 0.44 0.41 0.39 0.40 0.42 0.41 0.39 0.41 0.39 0.44 0.42 0.40 0.48 0.48 0.43 0.43 0.53 0.58 0.60 0.61 0.60 0.59 0.57 0.60 0.62 0.63 0.66 0.67 0.67 0.67 0.68 0.69
0.56 0.58 0.50 0.44 0.28 0.22 0.25 0.24 0.27 0.23 0.20 0.24 0.28 0.24 0.26 0.24 0.26 0.25 0.24 0.27 0.28 0.29 0.29 0.28 0.29 0.28 0.29 0.26 0.26 0.29 0.33 0.33 0.34 0.34 0.32 0.30 0.29 0.29 0.29 0.30 0.33 0.32 0.36 0.41 0.38 0.32 0.32 0.30 0.30 0.32 0.29 0.29 0.42 0.45 0.42 0.41 0.39 0.33 0.35 0.39 0.43 0.45 0.46 0.48 0.48 0.47 0.46 0.49 0.42 0.39 0.41 0.52 0.55 0.58 0.55 0.55 0.57 0.58 0.58 0.61 0.63 0.64 0.66 0.67 0.68 0.68 0.69 0.71
Wind_Speed
23 23 23 22 22 22 22 22 22 22 22 22 22 22 22 22 22 21 21 21 21 21 21 21 21 21 20 20 20 20 20 21 21 21 21 20 18 18 18 18 17 17 17 17 16 16 16 17 17 16 16 15 16 16 15 16 16 15 15 15 14 14 13 12 12 11 12 11 12 13 14 14 14 13 13 13 15 14 14 15 14 14 13 12 13 14 15 16
23 23 22 22 22 22 22 22 22 22 22 22 22 22 22 22 22 21 21 21 21 21 21 20 20 20 20 20 20 20 20 21 21 21 21 19 18 18 19 19 18 18 18 17 17 17 17 17 16 16 16 15 15 15 15 16 16 16 15 14 15 14 13 13 13 12 13 14 14 15 15 15 14 13 13 13 13 14 14 15 15 15 14 13 13 14 15 16
22 22 22 22 22 21 21 21 21 21 21 21 21 21 21 21 21 21 21 21 21 21 20 20 20 20 20 20 20 20 20 20 21 21 19 18 18 18 18 19 19 18 18 17 17 17 16 16 16 16 16 15 15 15 15 15 15 16 16 15 15 15 14 14 15 15 15 16 16 16 15 15 15 14 14 14 14 15 16 15 15 16 15 15 15 15 15 16
22 22 21 21 21 21 21 21 21 21 21 21 21 21 21 21 21 21 21 21 21 20 20 20 20 19 19 19 19 19 19 20 20 18 17 17 18 18 18 18 19 19 18 17 17 17 16 16 16 16 16 15 16 15 16 15 15 16 16 17 15 14 15 15 15 16 16 17 18 17 17 16 15 15 15 14 14 14 14 14 15 16 16 16 16 16 16 17
22 21 21 21 21 20 20 20 20 20 20 20 20 20 20 20 20 20 20 20 20 20 19 19 19 19 18 18 18 18 17 17 16 15 16 17 17 18 18 18 19 19 18 17 18 18 17 17 16 17 17 16 16 16 17 17 16 16 16 19 17 15 15 14 14 16 16 17 18 18 17 16 15 15 15 15 15 12 10 12 13 14 15 16 16 16 17 18
22 21 21 20 20 20 20 20 20 20 19 19 19 19 19 19 19 19 19 19 19 19 19 18 18 18 17 17 17 17 17 15 14 14 16 16 16 17 17 18 19 19 18 17 18 18 17 17 17 17 17 16 16 16 17 17 17 17 16 18 19 17 17 15 15 16 17 18 19 18 17 17 16 16 15 15 16 14 12 13 14 14 15 16 17 17 17 18
21 21 20 20 20 20 19 19 19 19 19 19 19 19 19 19 19 19 18 18 18 18 18 17 17 17 16 17 17 17 19 18 15 15 15 15 15 15 16 17 19 19 18 18 18 18 18 18 17 17 16 16 16 17 16 16 17 17 17 17 17 18 19 18 18 18 18 19 19 18 18 18 18 16 15 16 17 16 14 14 15 15 15 16 18 18 18 18
21 20 20 20 19 19 19 19 19 19 19 19 18 18 18 18 18 18 18 18 17 17 17 17 17 16 16 16 16 17 19 17 15 15 15 15 15 15 16 17 18 18 18 19 18 17 17 18 18 16 16 16 15 16 15 15 17 18 18 17 17 17 19 19 19 19 19 19 19 19 19 19 18 18 17 17 17 16 15 15 16 16 15 17 18 18 19 19
21 20 20 19 19 19 19 19 18 18 18 18 18 17 17 17 18 18 17 17 17 17 17 17 16 16 15 15 16 16 16 14 14 15 15 16 16 15 16 16 18 18 18 19 18 17 17 17 18 17 16 15 14 16 16 15 16 17 19 19 18 18 18 19 19 20 19 19 19 19 19 19 18 18 18 18 17 15 15 15 15 16 16 16 17 18 19 19
21 20 20 19 19 19 19 18 18 18 18 17 17 16 17 17 17 17 17 17 17 18 17 17 16 15 16 16 17 15 14 14 14 15 15 16 16 16 16 16 17 18 18 18 17 18 17 16 17 16 16 15 14 15 16 16 14 14 17 19 19 19 19 19 19 19 19 19 19 19 19 19 18 17 17 17 16 15 14 15 15 16 16 16 17 17 18 17
21 20 20 19 19 19 18 18 18 18 17 17 16 16 16 16 17 17 17 17 17 17 17 17 16 16 16 16 17 15 13 14 14 14 16 16 17 17 17 17 17 17 17 17 17 17 17 16 15 15 15 15 15 16 17 18 16 15 16 17 19 20 20 19 19 19 18 18 18 19 19 19 18 18 17 16 14 15 15 14 14 15 16 16 16 16 16 17
21 20 20 19 19 19 18 18 18 17 17 17 16 16 16 16 17 17 17 17 17 18 17 17 16 16 16 17 19 16 14 15 14 15 16 17 17 17 17 17 17 17 16 16 17 17 17 16 16 16 14 13 15 15 16 17 18 17 17 18 18 19 20 20 19 18 17 17 16 16 18 19 19 19 20 18 15 14 16 15 14 14 15 15 15 16 17 18
21 20 20 19 19 19 18 18 18 17 17 17 17 17 17 16 17 17 17 17 17 18 17 17 16 16 17 17 18 17 15 15 15 15 16 17 17 17 17 17 17 17 16 16 16 17 17 16 17 18 16 14 14 13 13 15 16 17 17 17 17 17 19 19 18 16 16 16 14 14 16 17 19 20 22 20 17 15 16 16 15 15 14 14 15 16 17 18
21 20 20 20 19 19 18 18 18 17 17 17 17 17 17 16 17 17 17 17 17 17 17 17 17 16 17 17 16 16 16 15 16 16 17 17 17 17 17 17 17 17 16 16 15 16 17 17 18 18 17 17 15 13 15 15 15 16 16 15 15 15 15 15 15 14 15 15 14 15 16 15 15 17 20 18 16 16 17 17 17 16 15 15 16 16 17 17
21 20 20 20 19 19 19 18 18 17 17 17 17 17 17 17 17 16 16 16 17 17 16 16 17 16 17 18 16 16 17 17 18 18 17 18 18 17 18 17 17 17 16 16 15 15 16 17 18 18 17 18 16 15 15 15 14 15 15 15 15 14 12 11 13 14 14 13 13 16 15 14 13 13 16 16 15 17 18 18 18 18 15 15 16 16 16 16
21 20 20 20 20 19 19 18 18 17 17 17 17 17 17 17 16 16 16 16 16 16 16 16 17 17 17 16 16 16 17 18 19 19 18 18 18 17 17 18 17 17 17 16 15 16 16 17 18 18 17 17 17 16 15 15 15 15 15 15 14 14 13 12 13 15 15 13 13 15 15 15 13 11 13 15 16 18 19 19 19 19 16 15 16 16 16 16
21 20 20 20 20 19 19 18 18 18 17 17 17 17 17 17 16 16 16 16 16 16 17 17 16 18 18 16 16 17 18 18 18 19 19 19 19 17 17 17 17 17 17 16 16 16 17 17 17 17 17 17 17 16 15 15 15 14 15 15 14 14 13 11 11 13 14 14 15 15 16 16 14 11 12 15 16 18 20 20 20 20 17 16 17 17 17 18
21 20 20 20 20 19 19 18 18 18 17 17 17 17 17 17 17 17 17 17 17 17 18 18 18 18 18 18 17 16 17 17 16 18 19 19 19 18 17 17 17 17 17 16 17 17 16 17 17 17 17 18 17 17 17 16 14 14 15 15 15 15 15 13 11 11 13 14 15 15 16 18 18 16 16 16 16 17 20 20 21 21 19 17 18 19 19 19
21 20 19 20 20 19 19 18 18 17 17 16 16 17 16 16 17 17 17 17 17 18 17 18 19 17 15 17 17 15 16 16 16 17 18 18 19 19 18 17 17 17 17 16 17 17 16 16 17 18 18 18 19 19 19 17 14 14 14 14 15 15 15 15 12 11 12 14 16 17 17 18 20 21 20 19 17 17 19 20 21 21 22 19 18 19 19 19
20 20 19 19 19 19 19 18 18 17 16 16 15 16 16 16 15 15 16 18 20 20 18 18 20 20 16 16 17 16 16 17 18 18 18 18 18 19 19 18 17 17 17 15 15 17 17 17 17 18 18 18 20 20 21 19 16 15 15 14 15 15 15 15 14 13 14 16 17 17 19 19 20 21 21 20 19 18 19 21 21 22 23 22 19 18 19 21
20 19 19 19 19 19 18 18 18 17 16 16 15 16 15 14 14 13 14 17 20 21 21 20 21 21 20 18 18 17 17 18 19 18 18 18 18 18 18 18 17 17 17 16 15 15 16 18 18 18 18 18 18 19 21 20 17 16 17 16 17 17 16 15 14 15 15 17 18 18 19 20 20 21 21 21 21 20 19 20 22 23 24 24 22 21 21 21
19 19 19 19 18 18 18 18 17 17 16 16 16 16 15 13 13 14 14 16 17 19 20 20 20 21 21 21 20 19 18 19 19 19 18 19 19 18 18 18 18 16 17 17 14 14 16 18 18 18 18 17 17 16 18 19 18 18 18 18 18 17 16 15 14 15 16 17 18 18 19 19 19 20 21 22 22 22 21 21 22 23 23 23 23 23 22 21
18 18 18 18 18 18 18 18 17 17 16 16 16 16 14 13 13 14 15 15 15 17 18 18 19 19 20 21 21 20 20 19 19 19 19 19 20 19 18 18 18 17 17 17 16 15 15 16 18 19 17 16 17 16 17 18 18 19 19 18 19 18 18 17 15 15 16 17 18 18 19 20 20 20 21 22 23 23 23 22 22 23 23 23 23 23 22 22
18 18 18 17 17 17 17 17 17 17 16 16 17 16 14 13 13 13 14 15 14 14 15 15 16 17 17 17 18 20 21 20 20 20 20 20 20 19 19 18 18 18 17 18 18 17 16 13 14 16 15 16 17 17 17 17 18 19 20 20 19 19 19 18 15 15 16 17 19 20 21 21 21 21 21 22 22 23 23 23 22 22 23 23 22 23 23 22
17 17 17 17 17 17 17 17 16 16 16 16 16 15 14 13 13 13 13 14 14 14 14 14 15 15 15 15 16 18 19 21 21 20 20 21 20 18 18 18 18 18 18 18 18 18 18 14 12 14 15 16 18 17 18 18 17 18 20 22 21 20 20 18 18 19 18 18 19 20 20 19 19 21 20 19 20 21 22 22 23 22 22 23 22 23 23 23
17 17 16 17 16 16 16 16 15 15 15 15 14 13 13 13 13 12 12 13 13 14 13 14 14 13 14 15 15 17 18 20 22 21 20 22 22 19 18 17 17 18 18 18 17 16 17 16 14 16 17 17 18 17 17 17 17 17 17 19 21 21 21 21 20 20 19 17 15 15 17 17 17 18 17 16 18 19 19 20 21 21 21 22 22 23 23 23
16 16 16 16 16 16 16 15 15 15 15 14 13 13 13 12 12 12 12 13 13 14 13 13 14 12 13 14 15 15 14 15 19 21 20 21 22 20 18 17 17 18 17 16 17 17 18 16 14 16 17 17 17 17 17 17 17 16 15 16 18 19 20 20 20 19 19 18 16 15 17 18 18 17 16 15 17 17 16 17 19 19 19 19 19 20 22 23
16 16 16 16 16 16 16 16 16 15 14 13 12 13 12 12 12 12 12 12 12 13 13 12 12 13 13 13 16 16 12 12 16 20 21 21 22 21 19 18 17 18 17 17 16 15 17 19 16 16 17 16 17 16 16 17 17 17 15 15 16 17 19 18 18 18 18 19 19 18 18 18 18 18 17 17 17 17 16 16 16 16 16 17 18 19 19 21
15 15 15 15 15 16 16 16 16 15 13 13 13 12 12 12 12 12 12 12 11 12 12 12 13 14 14 13 16 17 15 14 14 16 20 21 22 20 19 19 18 18 19 18 17 14 14 17 17 17 17 16 16 16 15 16 17 16 15 15 16 17 18 17 17 18 18 18 19 18 18 17 17 16 16 16 16 16 16 14 13 14 16 17 18 19 19 20
15 15 15 15 14 14 15 16 17 16 14 14 13 12 12 12 12 12 12 12 12 13 12 13 13 14 15 14 16 17 17 16 13 14 18 20 22 21 19 19 18 18 19 19 19 17 14 13 14 16 17 16 16 17 17 17 16 16 15 15 16 16 17 17 17 17 17 18 18 19 19 18 16 15 13 12 12 12 12 12 12 13 15 16 17 19 19 19
14 14 14 15 14 14 14 14 14 15 14 14 13 12 12 12 12 12 12 11 12 12 13 14 13 14 15 15 15 16 17 16 15 16 17 18 21 21 19 18 18 18 19 18 19 19 16 14 14 16 17 17 16 17 17 17 17 16 15 15 15 15 16 16 16 16 16 16 16 17 18 18 16 14 10 8 9 10 11 12 12 12 14 15 16 17 18 18
13 14 14 15 15 14 15 14 12 13 13 13 13 13 12 12 13 13 11 11 12 12 13 14 13 14 15 14 14 15 16 16 16 17 18 18 19 20 20 19 17 18 19 18 18 18 18 17 16 16 17 17 16 15 15 16 17 16 15 15 15 14 13 14 14 14 15 15 15 14 14 15 15 13 10 9 9 10 12 13 14 15 16 15 15 15 15 15
13 13 14 14 15 15 15 15 13 13 13 13 13 13 13 12 13 13 11 11 11 11 11 13 13 13 14 14 14 15 16 16 17 17 18 19 18 20 22 21 19 19 17 16 16 17 17 17 17 16 16 17 17 15 14 14 16 17 16 16 15 13 13 13 13 13 14 14 14 13 12 13 13 11 10 11 11 11 11 12 14 14 14 13 12 13 13 14
13 13 14 14 14 15 15 15 14 14 14 14 13 13 13 13 12 11 12 11 10 11 12 13 13 14 15 15 14 15 15 16 17 17 17 18 18 19 20 22 22 20 17 16 16 16 16 15 16 17 15 15 18 17 15 14 14 17 17 16 16 15 13 12 11 11 11 12 12 12 12 12 12 10 9 10 10 11 11 11 12 11 11 11 11 11 12 13
12 12 13 13 14 15 15 15 14 14 14 14 14 13 14 13 12 12 12 11 10 11 12 12 14 14 15 15 14 15 15 14 17 18 17 18 18 18 18 20 22 20 18 17 15 15 16 14 13 16 15 15 17 18 17 16 14 15 16 16 17 15 14 13 12 11 10 10 10 11 11 11 9 8 8 8 8 8 9 10 10 10 10 9 9 9 10 10
11 11 12 12 13 13 14 15 15 15 15 14 14 14 14 13 11 11 12 11 11 12 12 12 14 14 15 15 15 15 15 14 16 17 17 18 18 18 18 18 20 21 19 17 14 14 16 13 12 15 16 15 16 17 18 17 14 12 15 17 16 15 14 14 14 12 12 12 11 11 12 11 10 8 8 7 6 6 8 8 8 9 9 8 7 6 7 9
10 10 11 12 12 12 14 15 15 15 15 14 14 14 13 13 12 11 11 12 12 12 13 13 13 14 14 14 14 15 15 15 16 16 16 17 17 17 18 18 19 21 21 18 15 13 14 13 12 15 16 16 16 16 18 19 17 13 13 14 14 15 14 13 13 12 12 13 13 13 14 13 11 10 8 7 7 6 7 7 7 8 8 7 7 6 6 8
11 11 11 11 11 11 13 14 15 15 14 14 15 15 13 12 12 12 11 12 12 13 14 13 11 13 14 13 12 13 14 14 16 16 15 15 14 14 15 16 16 19 20 19 16 14 14 14 13 15 16 16 16 16 16 19 20 17 14 12 12 13 13 14 13 13 12 12 12 13 14 11 8 9 8 8 8 7 6 6 6 7 8 8 8 7 6 7
11 11 11 11 11 11 12 14 14 14 14 13 14 14 14 13 11 11 12 13 13 13 13 13 12 12 14 13 12 12 13 13 14 15 15 15 14 13 13 13 14 15 18 18 17 14 13 13 13 15 15 14 14 16 16 16 18 19 17 14 14 13 12 13 13 13 13 13 11 12 13 9 6 7 7 6 6 6 6 6 6 6 7 7 7 7 7 6
12 11 11 11 11 11 12 13 13 13 13 13 12 11 12 12 12 12 12 13 13 13 13 13 12 13 14 14 13 12 12 13 13 14 15 14 13 14 14 13 13 14 15 16 16 14 14 14 14 14 14 15 14 15 16 16 16 18 18 17 16 15 13 12 13 13 13 12 12 11 10 8 7 7 6 5 4 5 5 6 6 6 6 6 7 7 7 7
12 11 11 12 12 12 12 12 12 12 12 12 11 10 10 10 10 11 12 12 13 14 13 13 13 13 13 13 13 13 12 13 13 14 14 12 12 14 14 14 13 12 14 16 16 14 13 15 15 14 14 15 14 14 16 16 15 16 18 18 18 17 15 14 13 14 14 13 12 12 10 8 7 7 6 5 4 4 4 5 6 6 5 6 6 6 7 8
12 10 11 13 13 12 12 11 11 12 11 10 10 10 10 10 10 10 11 12 13 13 13 14 14 14 13 13 13 12 12 13 13 13 13 12 10 11 13 15 15 14 13 14 14 14 13 13 15 15 15 14 13 13 14 15 14 15 15 16 17 17 17 16 14 13 15 15 13 13 11 9 7 7 6 5 4 4 3 4 5 6 5 5 6 6 7 8
12 10 10 13 13 12 11 10 10 11 10 9 9 9 9 11 11 10 11 12 12 12 13 13 13 14 14 13 13 12 11 13 13 12 12 12 10 10 11 14 17 16 15 14 12 13 14 14 15 16 15 15 14 13 14 15 15 16 15 15 15 16 17 16 14 12 14 14 12 12 11 9 8 7 7 6 5 4 3 3 4 5 6 6 7 7 7 8
11 10 10 13 13 12 11 9 10 10 10 9 10 10 9 10 11 10 11 11 11 11 12 13 13 13 13 13 14 13 11 12 13 12 11 11 10 10 10 11 14 15 14 14 13 13 15 15 16 16 15 16 16 14 15 16 16 16 17 15 15 16 16 16 14 13 14 15 15 12 9 7 7 7 6 5 5 4 3 3 3 4 6 7 7 8 8 8
11 10 11 12 12 12 10 8 8 9 9 9 10 10 10 10 10 10 10 10 10 11 11 12 12 12 13 13 14 15 13 12 13 12 11 11 10 10 10 10 12 12 12 12 13 14 15 14 16 17 16 15 14 14 14 13 14 15 15 13 14 17 18 15 15 15 15 15 15 13 9 6 6 6 6 5 5 4 3 3 4 5 6 7 7 8 8 9
11 10 10 11 12 11 10 9 8 8 9 9 9 9 10 9 9 10 11 10 10 11 11 11 11 12 13 13 13 14 14 13 13 12 12 12 10 10 11 11 11 11 11 12 13 14 14 14 15 17 17 15 13 13 13 12 12 13 14 13 14 16 16 15 15 16 14 13 11 9 8 7 7 7 6 5 4 4 4 4 4 5 6 6 7 7 8 9
10 10 10 11 11 10 9 10 10 8 8 9 8 8 9 9 8 9 10 9 9 11 11 11 11 11 12 12 13 13 13 13 14 13 13 13 11 10 11 12 12 12 13 14 13 14 15 15 14 15 16 16 15 14 13 13 12 12 13 13 12 12 12 13 15 14 13 14 13 10 9 9 7 7 6 5 5 5 4 4 4 5 5 6 7 7 7 8
9 9 10 10 9 9 9 9 9 8 8 8 8 7 8 9 8 8 9 9 9 10 10 10 11 11 11 12 12 13 13 13 13 13 13 13 13 11 11 11 11 12 14 14 13 14 16 15 14 14 15 16 16 16 15 15 14 13 12 11 10 9 9 11 12 11 11 13 13 11 10 9 7 6 6 5 6 5 5 5 5 5 5 6 6 6 6 7
9 8 10 9 8 7 7 8 8 8 8 8 7 8 8 8 8 8 8 8 8 9 9 9 10 10 10 11 12 12 12 12 12 12 13 13 13 13 12 11 11 11 12 14 14 14 15 15 14 14 15 15 16 16 16 18 17 14 12 11 10 9 9 10 10 10 10 11 10 10 10 9 8 7 7 6 6 6 6 6 6 5 5 6 6 5 5 6
9 8 9 9 8 7 7 7 8 8 7 7 7 7 7 7 7 7 7 7 8 8 9 9 10 10 9 10 11 11 11 11 11 11 12 13 14 13 13 12 12 11 11 13 14 14 15 15 13 13 15 14 13 14 15 16 15 13 11 11 11 10 10 10 10 10 10 10 11 11 10 9 9 8 7 7 7 6 6 6 6 6 6 6 6 5 5 6
9 8 9 9 8 7 8 8 8 8 7 7 7 7 7 6 6 6 6 6 7 8 8 9 9 9 10 11 11 11 11 11 11 11 12 13 13 13 13 13 13 13 12 13 14 15 16 15 13 14 15 14 13 14 14 14 14 12 9 9 11 11 11 10 9 10 10 11 11 11 9 9 10 9 8 7 6 6 6 6 6 6 6 6 6 6 6 6
9 9 10 9 8 8 8 7 7 7 6 6 6 7 7 5 5 6 6 6 7 7 7 8 8 9 10 11 11 11 11 12 13 13 13 14 14 14 14 14 14 14 14 14 14 15 15 15 14 14 14 14 13 13 13 15 15 13 9 9 10 11 11 11 10 10 10 11 11 10 9 10 11 10 9 8 6 6 6 6 6 7 6 6 6 6 7 6
Wind_Direction
253 253 253 253 252 252 252 251 251 252 252 252 252 253 253 254 254 254 255 255 256 257 258 259 260 261 261 263 264 264 264 262 259 253 248 246 243 242 241 241 237 232 231 231 229 228 230 233 233 234 236 237 240 241 238 240 243 243 245 246 247 247 250 254 248 253 254 258 271 271 272 270 272 278 278 271 257 256 256 249 250 244 245 251 240 220 207 211
251 251 252 252 252 252 252 252 252 252 252 252 252 252 253 253 254 254 255 255 255 256 257 258 259 260 261 262 263 264 264 261 257 252 246 243 241 241 240 239 234 229 228 228 227 227 229 231 230 232 235 237 238 238 238 239 240 241 244 245 246 247 254 259 257 259 256 262 271 267 271 271 271 276 274 272 263 258 254 245 244 242 241 241 231 218 211 211
250 250 250 250 250 251 251 251 251 251 251 251 252 252 252 252 253 253 254 254 254 255 256 257 258 259 260 260 262 263 262 260 255 248 241 238 240 241 239 235 230 227 226 228 228 228 231 231 230 232 234 237 237 236 238 238 239 241 244 245 246 255 262 260 257 258 259 265 267 266 272 269 269 274 268 270 270 262 253 244 242 239 236 234 228 221 215 214
249 249 250 249 250 250 250 250 250 250 250 251 251 251 252 252 252 253 253 254 254 254 255 256 257 258 258 259 260 261 261 259 251 241 235 237 240 239 236 231 226 223 225 230 231 229 233 232 231 233 235 238 237 237 240 238 239 242 244 244 251 266 264 257 257 259 261 263 265 267 268 266 270 271 266 267 266 262 251 242 245 242 235 232 227 221 218 220
248 248 249 249 249 249 249 250 250 250 250 250 251 251 251 251 252 252 252 252 253 253 254 255 256 256 257 257 258 258 257 253 242 234 236 238 239 237 234 228 223 221 223 232 232 230 234 233 231 233 236 241 237 238 242 238 240 247 246 247 256 265 259 256 258 258 260 261 263 264 263 267 271 266 263 263 259 265 258 242 247 247 237 230 225 219 219 221
247 247 248 248 248 249 249 249 250 250 250 250 250 250 250 251 251 251 251 251 252 252 253 254 254 255 256 255 255 251 247 245 238 236 239 237 236 234 230 224 221 221 225 233 232 230 233 232 231 232 237 242 238 239 243 238 240 249 249 249 255 257 255 260 261 259 261 261 261 262 263 266 266 262 263 259 255 264 265 249 249 249 238 231 226 220 218 220
246 246 246 247 247 248 249 249 249 250 250 250 250 250 250 250 251 251 250 250 251 251 252 252 252 253 254 253 251 244 242 245 239 235 237 233 232 229 225 221 219 222 227 231 230 229 231 229 230 232 237 242 240 240 242 239 241 247 252 252 253 254 255 261 263 262 261 260 261 261 263 263 260 261 263 260 255 258 262 254 249 246 238 232 228 224 223 224
245 245 245 246 247 248 248 248 249 249 249 249 249 249 249 250 250 250 250 250 250 250 250 250 251 251 252 250 247 242 241 242 234 233 236 231 228 224 220 219 219 223 227 229 228 228 229 228 229 232 238 243 242 239 240 242 244 246 251 255 256 256 257 261 262 260 260 260 260 260 260 259 257 260 263 259 253 255 259 254 247 242 236 232 230 228 228 228
243 244 244 245 246 247 247 247 248 249 248 249 249 248 249 249 250 250 249 250 249 249 249 248 249 248 248 246 245 243 239 236 233 235 234 227 224 219 218 218 219 224 227 227 227 227 228 228 230 233 241 246 243 240 240 244 248 248 250 254 256 257 259 260 260 259 259 259 259 259 258 256 256 259 260 252 250 257 256 249 245 238 232 231 229 228 230 230
242 243 244 244 245 245 246 246 247 247 247 248 248 248 248 248 249 249 249 249 248 248 247 246 246 246 244 242 242 241 235 234 235 233 229 224 220 217 219 220 220 225 227 226 227 228 228 231 233 236 243 246 245 244 241 243 252 255 254 256 257 259 260 259 259 259 259 260 258 257 257 256 255 256 254 247 246 253 251 244 240 234 231 232 229 229 231 232
240 241 243 244 244 244 245 245 246 246 247 247 247 247 248 248 248 248 248 248 247 246 245 244 243 242 242 241 240 239 235 235 234 230 226 222 219 219 222 223 223 227 228 227 228 229 229 233 234 235 240 244 245 246 244 245 254 260 259 260 259 259 259 257 257 257 258 259 256 256 258 256 253 251 248 245 244 246 244 239 235 233 233 232 229 230 232 232
239 240 242 243 243 244 244 245 245 246 247 247 247 248 248 249 249 249 249 247 246 244 243 241 239 239 240 240 238 237 237 234 231 228 224 221 220 222 224 224 226 229 229 228 229 229 230 234 234 233 239 246 245 246 248 247 252 257 258 260 260 258 256 253 252 253 254 255 254 257 259 254 250 246 243 243 245 243 240 237 234 234 233 232 230 229 230 231
239 240 241 242 243 243 244 245 245 246 247 248 249 249 250 250 250 251 249 247 245 242 241 239 237 237 239 240 236 234 236 233 229 227 223 222 222 224 226 225 228 231 232 232 231 230 232 235 234 234 240 247 247 249 253 250 250 254 255 258 260 258 256 248 244 248 251 252 252 256 259 255 249 243 241 240 241 241 238 236 235 235 234 233 231 228 229 230
238 239 241 241 242 242 243 244 246 247 248 249 250 250 252 252 252 251 249 247 244 240 238 236 235 235 236 240 235 232 234 231 229 226 223 223 223 225 226 226 230 231 233 235 234 233 234 235 236 237 240 243 250 253 252 251 250 252 253 252 253 259 257 238 234 244 249 248 247 250 257 259 253 241 234 233 235 240 239 235 235 236 233 232 231 229 230 231
238 239 241 241 241 241 243 244 246 247 249 251 251 252 253 253 251 249 248 246 242 239 236 233 234 233 237 239 233 232 234 231 229 226 224 224 224 226 226 227 230 230 232 234 235 235 235 235 234 238 240 240 248 252 249 249 247 247 249 250 248 252 250 231 233 244 247 250 244 245 252 254 256 243 226 229 239 242 241 237 236 238 234 232 232 230 233 234
237 239 240 240 240 241 242 244 245 247 249 251 252 254 254 252 250 247 247 244 239 236 232 233 233 233 240 238 229 232 232 229 228 225 225 225 226 227 225 226 228 228 231 233 235 236 235 235 234 238 241 239 242 247 248 247 244 243 245 250 247 242 243 240 240 241 245 253 245 244 251 252 251 239 227 237 246 243 242 239 237 239 235 233 234 234 238 237
237 239 240 239 239 240 242 243 245 247 249 252 254 254 253 250 248 247 246 241 238 235 233 236 233 233 240 236 231 234 228 226 227 223 224 226 227 228 225 225 227 227 229 231 234 235 233 233 235 239 241 240 240 242 245 244 243 242 240 248 250 244 246 246 241 238 242 251 249 246 251 251 247 237 236 245 249 245 243 239 237 238 236 236 239 239 240 237
236 239 240 239 238 239 241 242 244 246 249 253 254 254 253 250 247 247 245 240 237 235 237 236 232 236 237 230 232 233 223 222 223 220 223 224 226 228 226 225 226 226 229 232 233 233 232 233 236 240 240 239 239 238 240 242 245 244 240 243 247 247 249 250 248 243 242 248 251 250 250 250 249 249 252 252 250 248 244 240 238 238 236 239 242 241 240 239
236 238 240 239 237 238 240 242 243 246 249 252 253 252 251 248 248 247 243 238 234 234 238 231 227 234 233 225 228 228 221 221 221 221 222 222 223 226 225 225 226 226 230 233 232 231 233 235 236 239 240 237 237 236 237 242 251 255 251 245 245 248 247 248 250 247 250 253 253 253 254 253 251 252 255 254 251 248 246 243 240 239 239 241 243 243 243 243
236 237 239 238 237 237 239 241 243 246 248 250 250 248 247 248 246 243 239 237 235 238 243 233 227 232 232 227 225 224 224 224 225 225 223 221 221 222 223 224 226 227 231 233 231 230 233 237 238 239 241 238 237 237 238 247 258 259 257 254 252 253 252 251 250 251 258 260 258 258 257 257 256 255 255 255 251 247 246 245 243 242 243 243 243 241 240 242
236 237 238 238 237 237 238 241 242 245 247 247 247 246 249 253 249 245 245 242 237 238 241 237 233 234 234 232 227 226 228 227 227 226 223 221 219 219 221 221 224 227 230 230 230 231 233 239 240 239 241 240 240 240 240 249 257 252 251 256 256 254 254 252 248 252 259 260 260 260 259 258 257 256 256 254 252 249 246 247 245 244 244 243 243 242 242 243
236 236 237 238 237 237 239 241 242 245 246 242 242 245 250 254 250 249 251 249 242 238 238 236 235 236 234 233 230 232 232 227 224 221 218 218 217 218 218 219 224 226 226 227 228 231 235 242 242 240 241 241 243 244 242 246 250 248 250 255 256 253 252 248 248 256 259 259 261 261 261 261 259 257 256 253 252 251 248 248 247 245 244 244 244 245 245 245
236 236 237 237 237 238 238 241 243 243 241 237 239 245 249 249 249 250 248 248 246 238 234 232 231 232 231 230 228 228 229 226 221 216 214 216 217 219 218 218 224 226 225 225 229 234 239 245 241 239 240 239 241 244 244 246 246 247 248 251 252 250 251 252 253 257 256 257 261 265 266 265 263 261 257 254 252 251 248 246 246 245 244 244 244 244 244 244
237 236 236 237 238 238 239 242 242 239 235 235 241 244 247 247 247 251 247 245 243 232 228 228 229 228 227 227 224 223 226 226 223 217 213 215 217 219 221 221 224 229 227 226 231 238 244 249 241 235 234 236 240 241 242 246 246 245 245 249 251 250 252 255 254 257 259 260 260 263 267 265 262 259 256 253 249 248 247 245 244 244 244 244 244 242 242 243
236 236 236 236 238 239 240 241 236 232 233 237 241 239 242 244 243 248 245 241 236 225 222 224 224 225 223 224 222 221 225 225 225 221 215 216 217 217 222 224 226 229 227 227 234 241 244 245 239 236 236 238 242 242 240 243 247 247 243 245 249 252 257 258 258 261 264 266 261 256 261 264 260 257 254 250 245 243 243 243 243 242 242 243 243 242 242 242
235 235 237 236 238 239 237 233 229 231 235 237 236 234 237 240 240 243 239 237 232 219 216 219 220 223 221 220 219 220 227 227 224 221 216 218 219 218 223 225 226 229 229 230 236 242 241 238 237 240 241 241 242 242 240 239 245 249 246 245 246 250 257 257 258 260 260 266 265 253 258 266 263 258 252 247 247 243 238 239 242 241 241 242 243 242 241 240
234 235 236 236 238 237 232 230 231 234 235 232 231 233 235 236 237 236 233 236 229 215 212 215 219 222 220 219 215 216 227 222 217 219 217 217 218 220 226 225 224 229 232 234 239 240 237 237 239 240 240 241 241 242 239 237 241 246 247 248 247 249 253 254 255 256 257 263 262 252 256 264 263 260 254 247 246 244 239 238 238 239 242 242 243 243 240 239
234 235 236 236 237 235 231 233 233 233 233 230 231 233 232 233 233 229 229 231 221 213 216 217 219 222 222 220 215 218 225 215 216 219 216 216 217 218 226 226 225 228 229 233 237 235 233 236 240 239 239 240 240 241 239 237 240 244 250 253 252 251 252 253 253 253 256 259 258 254 253 258 260 258 255 249 240 239 243 242 235 237 244 245 248 249 244 240
233 235 236 237 237 234 230 230 229 230 232 231 230 230 229 230 228 226 230 232 220 218 223 221 221 222 220 220 218 223 226 222 225 219 211 216 217 218 227 229 229 230 228 231 235 236 236 237 239 238 238 240 240 240 240 238 239 246 256 255 251 251 250 251 253 253 255 255 256 256 252 255 260 256 254 250 241 240 244 241 234 238 248 250 249 248 245 240
233 234 235 235 234 230 227 227 226 228 230 228 226 226 226 225 224 224 228 228 222 220 221 220 220 217 215 219 221 222 224 223 223 213 209 215 216 220 229 229 231 234 230 230 235 240 242 238 240 240 239 240 241 241 241 240 240 246 255 253 248 247 246 248 250 252 254 251 251 254 252 253 257 256 254 248 241 242 240 237 238 241 248 248 242 241 242 241
233 233 233 231 228 225 225 223 221 223 223 222 222 223 223 220 223 228 226 225 224 219 219 220 217 215 218 224 224 219 220 222 218 213 214 215 215 219 225 226 228 231 230 231 234 237 237 235 241 242 239 241 243 241 241 240 240 243 247 248 245 242 241 244 245 245 249 251 252 253 250 248 250 253 251 240 238 243 241 242 248 251 254 251 242 240 242 241
232 232 231 229 226 224 221 218 216 218 216 218 220 218 219 219 224 230 225 222 226 221 220 219 217 220 223 226 224 216 218 221 217 216 216 215 215 217 221 223 221 224 228 229 230 234 237 238 240 238 236 237 239 239 238 237 237 238 238 239 241 239 237 240 242 239 242 248 251 253 249 245 247 249 244 238 245 250 245 250 259 261 257 250 243 242 244 242
232 232 231 228 224 220 219 219 219 218 215 216 217 215 220 224 224 227 225 221 223 223 223 222 223 227 225 224 222 215 217 219 215 217 216 214 217 218 220 223 220 223 229 228 229 232 235 237 236 233 232 232 233 234 232 231 232 232 231 232 234 236 235 239 242 241 243 247 246 243 243 246 249 248 242 242 250 253 250 254 261 259 251 246 243 243 244 240
234 233 230 225 220 217 217 217 216 215 213 213 215 215 222 228 226 226 228 223 222 226 226 225 227 228 225 226 223 214 219 220 213 214 214 213 218 219 220 222 222 225 229 229 230 231 234 236 231 230 229 226 228 231 231 231 230 228 229 232 234 236 237 241 243 242 245 248 240 230 235 249 251 244 244 247 251 255 255 251 248 244 243 247 248 246 244 236
233 228 222 217 216 215 214 214 212 211 211 212 216 218 221 226 227 225 225 224 225 227 226 225 229 228 224 225 224 219 223 221 213 214 216 215 218 219 219 221 221 223 226 228 229 230 235 238 230 227 229 226 226 229 231 234 233 227 227 231 234 235 237 242 248 252 253 253 242 229 236 250 245 237 247 255 251 248 249 246 241 240 242 244 244 244 243 233
225 217 213 210 212 213 211 211 210 208 211 214 218 221 222 227 231 228 227 230 232 232 232 228 226 227 223 220 222 222 221 219 216 216 220 220 220 220 220 221 220 220 223 227 228 228 233 236 229 224 226 228 228 227 227 230 232 226 224 229 232 232 236 241 246 249 249 249 248 243 244 244 238 241 254 262 262 248 243 246 243 238 238 237 234 234 232 226
215 211 210 208 210 211 209 208 207 207 213 218 221 225 227 228 231 233 232 233 233 232 235 230 221 223 224 219 218 218 215 217 219 218 220 221 220 220 221 221 220 220 223 226 229 231 234 237 229 221 225 228 229 229 227 225 228 228 227 229 229 230 235 240 243 242 240 244 247 245 246 245 243 248 253 260 270 269 256 248 238 231 230 229 230 231 227 225
212 211 207 203 203 205 203 202 203 206 213 220 225 229 232 230 229 233 234 233 234 230 229 231 223 221 225 222 216 213 212 216 218 218 220 219 216 219 221 220 220 221 222 224 228 231 233 236 229 225 230 227 223 228 229 223 224 228 231 231 229 230 232 232 234 238 239 242 245 244 243 246 250 250 249 255 263 266 258 241 230 228 226 222 223 227 228 225
207 205 201 198 197 197 197 196 201 208 213 220 226 228 231 230 228 232 232 231 232 228 226 231 228 223 225 224 220 217 217 218 216 216 218 216 216 222 226 220 218 222 222 222 227 228 229 235 231 227 227 221 218 225 227 222 220 225 232 232 231 235 236 233 233 236 240 242 244 245 242 242 248 247 245 248 249 250 245 232 225 225 223 220 220 225 229 225
202 202 199 196 194 193 193 197 204 210 214 220 226 225 225 227 227 228 230 229 228 226 227 230 227 223 224 227 227 225 222 220 216 216 217 220 221 222 224 221 218 221 221 222 226 225 225 232 230 224 221 218 220 223 224 224 219 220 227 229 228 230 234 238 237 235 240 244 245 246 245 243 249 251 249 249 250 249 241 228 221 219 221 221 221 228 234 233
202 204 200 195 194 192 194 202 208 211 214 219 226 225 221 225 227 223 224 227 226 226 229 231 230 228 227 228 228 225 225 223 218 217 218 221 225 220 219 223 223 223 221 220 222 222 223 227 228 229 225 220 224 227 224 226 225 221 223 226 228 229 232 237 238 234 235 238 245 249 245 241 247 251 252 254 256 252 237 221 215 214 220 225 228 237 241 239
202 201 195 192 193 193 198 207 209 213 217 218 224 225 221 225 230 226 222 223 224 226 227 229 231 231 228 228 227 225 229 227 221 221 218 217 227 225 221 225 227 227 225 221 221 223 225 228 228 229 227 225 233 234 225 226 230 228 227 228 228 229 232 237 239 239 238 240 252 257 245 234 242 250 252 251 251 247 233 221 216 214 219 229 239 249 246 242
198 195 191 191 194 197 203 208 208 212 218 220 223 223 221 224 227 227 223 221 222 225 224 225 228 228 226 227 228 227 229 226 220 222 219 213 222 228 224 224 224 226 228 227 225 224 224 228 229 229 231 231 234 237 230 226 229 231 231 232 231 229 232 236 238 245 249 247 250 256 248 236 240 252 254 248 245 245 246 244 234 225 227 235 243 249 251 250
194 190 191 193 196 200 204 210 210 210 213 219 223 220 221 224 225 227 224 219 221 223 224 226 226 225 225 225 226 228 228 223 219 221 221 216 217 222 224 223 222 224 227 228 228 226 225 228 229 230 231 227 229 237 233 225 226 230 230 233 238 236 235 237 237 242 252 248 241 248 255 242 238 246 244 237 235 238 248 251 242 237 236 238 243 247 252 254
190 186 188 192 196 202 209 217 219 212 208 215 221 218 218 220 222 227 226 220 222 224 225 227 224 223 227 226 225 227 226 222 220 222 224 223 221 222 223 222 221 223 225 228 232 229 229 232 232 231 231 227 231 237 232 227 230 232 231 234 240 241 240 240 237 236 244 246 243 249 253 241 240 240 226 224 231 235 249 251 240 244 245 244 247 249 251 253
187 186 189 190 195 205 212 215 217 216 212 213 217 218 219 218 215 221 224 222 223 224 225 227 225 224 227 228 227 226 224 221 222 224 224 226 227 226 225 225 225 227 229 233 235 231 230 232 231 231 234 232 230 230 232 240 244 240 240 239 234 236 239 239 237 238 243 244 241 241 234 229 242 244 229 230 240 244 255 256 248 250 250 248 249 250 253 254
189 190 190 189 195 204 210 211 214 218 215 212 214 216 216 215 209 210 217 221 225 224 223 227 229 225 226 229 228 227 227 223 222 225 226 229 233 230 227 229 228 230 232 233 234 233 232 233 233 236 242 242 234 226 229 240 245 243 245 244 238 237 238 235 236 241 244 243 241 235 225 223 237 246 239 240 248 251 255 254 252 255 255 253 251 250 253 257
190 190 188 190 197 201 204 208 208 207 208 209 213 212 209 209 208 206 212 218 219 218 219 224 228 226 225 228 228 226 229 228 224 225 228 231 235 234 232 233 230 229 231 230 231 233 233 238 243 244 250 255 246 232 228 235 240 241 242 246 250 247 239 236 241 247 248 245 240 229 221 222 233 242 243 248 253 253 252 252 252 254 258 258 257 256 259 261
190 190 187 190 196 195 193 197 198 198 201 205 205 204 204 204 205 206 212 217 214 216 222 224 224 224 224 229 231 227 228 232 227 225 230 234 236 236 236 235 233 232 232 229 230 233 234 238 245 245 248 255 251 238 233 235 237 239 245 252 256 252 243 241 249 256 252 244 233 220 218 226 235 239 243 253 256 250 248 252 252 253 260 262 260 262 266 265
192 191 188 189 191 187 184 188 193 192 193 198 197 196 200 201 202 207 211 216 217 221 229 227 225 230 231 232 234 227 226 233 230 227 234 235 234 237 235 231 232 238 237 232 230 231 232 233 238 241 241 247 250 241 235 233 230 234 247 255 253 251 247 245 252 257 251 243 235 224 219 226 234 239 245 252 254 250 251 256 257 257 261 263 263 267 272 273
196 192 191 190 186 184 184 185 191 188 187 198 200 195 199 203 204 209 212 218 223 226 231 232 233 237 236 234 234 227 225 234 236 235 238 237 235 239 237 233 236 239 236 233 232 231 232 234 237 239 238 242 248 243 232 227 225 229 245 258 252 247 246 244 247 250 249 251 248 236 228 230 233 236 241 246 252 254 255 259 258 259 261 263 267 272 275 277
192 189 189 188 184 188 188 183 189 191 186 193 196 195 203 210 209 212 221 229 231 229 232 237 239 238 236 234 232 233 236 243 245 243 241 240 240 241 241 239 241 238 234 233 232 230 232 235 235 236 236 237 241 240 230 226 228 232 243 254 250 244 242 238 239 247 252 253 251 245 243 240 235 235 238 242 250 256 256 257 256 256 258 259 263 268 271 275